Content
SEND FEEDBACK

Daily
Averages
Monthly
Summary
United States of America

NEWBURGH, NEW YORK


Home > North America > United States > New York
Elevation: 361 feet     Latitude: 41 30N     Longitude: 074 15W

WEATHER
 
SELECT A DAY
Number of Records: 179,674;   Date Range: 12/17/97 - 4/18/14
 
SHARE

PRINT THIS DATA

[ ← Previous Day ]
WEATHER ALMANAC - JANUARY 31, 2013
[ Next Day → ]
[ °C ]   °F
Weather ElementAverageHighLow
Temperature45 °F55 °F (5:54 am)28 °F (10:54 pm)
Dewpoint36.2 °F52 °F (2:54 am)7 °F (11:54 pm)
Humidity75 %100 % (1:38 am)35 % (2:54 pm)
Barometer29.26 in29.73 in (11:54 pm)28.98 in (5:54 am)
Wind Speed9.7 mph25.3 mph (8:54 am)
Wind Gust36.8 mph (9:54 am)
Weather ElementAverage
Visibility5.8 mi
Wind DirectionSSE (171.9 °)

Weather ElementTotal
Precipitation2.61 in
Heating Degree Days23.5 (Base 65)
Averaged from 37 records on January 31, 2013
WEATHER CONDITIONS BREAKOUT
WIND DIRECTION BREAKOUT
WEATHER BY HOUR - JANUARY 31, 2013
[ °C ]   °F
Local TimeTemperatureDewpointHumidityBarometerVisibilityWind DirectionWind SpeedGust SpeedPrecipitationEventsConditions
12:35 AM48.2 °F46.4 °F93 %29.27 in0.5 miSE (130°)5.8 mph0.04 inFog-RainRain
12:54 AM48.0 °F46.9 °F96 %29.24 in0.8 miCalm0.10 inRainRain
1:13 AM48.2 °F46.4 °F93 %29.21 in0.8 miCalm0.04 inRainRain
1:24 AM48.2 °F46.4 °F93 %29.20 in0.8 miCalm0.07 inRainRain
1:38 AM48.2 °F48.2 °F100 %29.16 in0.8 miCalm0.11 inRainRain
1:43 AM48.2 °F48.2 °F100 %29.15 in1.0 miCalm0.12 inRainLight Rain
1:50 AM48.2 °F48.2 °F100 %29.12 in0.8 miESE (110°)3.5 mph0.13 inRainLight Rain
1:54 AM48.0 °F46.9 °F96 %29.13 in0.8 miCalm0.13 inRainLight Rain
2:07 AM48.2 °F48.2 °F100 %29.08 in1.2 miCalm0.01 inRainLight Rain
2:15 AM53.6 °F51.8 °F94 %29.07 in3.0 miSSE (160°)6.9 mph0.02 inRainLight Rain
2:35 AM53.6 °F51.8 °F94 %29.08 in4.0 miVariable4.6 mph17.3 mph0.12 inRainRain
2:37 AM51.8 °F51.8 °F100 %29.07 in1.8 miVariable6.9 mph17.3 mph0.18 inRainHeavy Rain
2:54 AM53.1 °F52.0 °F96 %29.07 in1.8 miWest (270°)3.5 mph0.36 inRainHeavy Rain
3:11 AM53.6 °F51.8 °F94 %29.04 in3.0 miCalm0.12 inRainHeavy Rain
3:24 AM51.8 °F50.0 °F94 %29.03 in1.8 miSE (140°)4.6 mph0.18 inRainHeavy Rain
3:36 AM51.8 °F50.0 °F94 %29.04 in1.0 miWest (270°)5.8 mph0.24 inRainHeavy Rain
3:54 AM52.0 °F52.0 °F100 %29.04 in2.5 miSSW (210°)4.6 mph0.44 inRainRain
3:58 AM51.8 °F51.8 °F100 %29.05 in5.0 miSSW (200°)4.6 mph0.00 inRainRain
4:06 AM51.8 °F51.8 °F100 %29.04 in7.0 miSouth (190°)5.8 mph0.02 inRainRain
4:54 AM53.1 °F52.0 °F96 %29.03 in6.0 miSSW (210°)9.2 mph0.17 inRainRain
5:54 AM55.0 °F52.0 °F89 %28.98 in10.0 miSSW (210°)9.2 mph0.01 inRainLight Rain
7:54 AM46.9 °F35.1 °F63 %29.16 in10.0 miWest (270°)13.8 mph32.2 mph0.00 inOvercast
8:54 AM45.0 °F28.0 °F52 %29.24 in10.0 miWest (280°)25.3 mph34.5 mph0.00 inPartly Cloudy
9:54 AM44.1 °F27.0 °F51 %29.30 in10.0 miWest (270°)25.3 mph36.8 mphOvercast
10:54 AM42.1 °F21.0 °F43 %29.33 in10.0 miWSW (250°)20.7 mph32.2 mphScattered Clouds
11:54 AM41.0 °F18.0 °F40 %29.37 in10.0 miWest (270°)17.3 mph34.5 mphMostly Cloudy
12:54 PM43.0 °F19.9 °F40 %29.37 in10.0 miWNW (290°)20.7 mph29.9 mphOvercast
1:54 PM44.1 °F19.0 °F37 %29.39 in10.0 miWSW (250°)16.1 mph31.1 mphMostly Cloudy
2:54 PM41.0 °F15.1 °F35 %29.44 in10.0 miWest (280°)16.1 mph34.5 mphPartly Cloudy
3:54 PM36.0 °F21.0 °F55 %29.49 in10.0 miWest (260°)18.4 mph29.9 mphMostly Cloudy
4:54 PM35.1 °F18.0 °F50 %29.54 in10.0 miWSW (250°)19.6 mph28.8 mph0.00 inOvercast
5:54 PM33.1 °F16.0 °F50 %29.59 in10.0 miWest (280°)13.8 mph26.5 mphMostly Cloudy
7:54 PM30.9 °F12.0 °F46 %29.65 in10.0 miWSW (250°)12.7 mph23.0 mphClear
8:54 PM30.0 °F15.1 °F54 %29.67 in10.0 miWSW (250°)15.0 mph24.2 mphClear
9:54 PM28.9 °F12.9 °F51 %29.69 in10.0 miWest (260°)17.3 mph28.8 mphMostly Cloudy
10:54 PM28.0 °F9.0 °F45 %29.70 in10.0 miWest (270°)11.5 mph25.3 mphPartly Cloudy
11:54 PM28.0 °F7.0 °F41 %29.73 in10.0 miWest (280°)19.6 mph28.8 mphClear
Hourly data recorded from KMGJ, located 1.44 miles away from Newburgh, New York







STORIES FROM OUR PARTNERS